Showing default

OPS 3367 B, 735

Orbit data source: Space-Track

OPS 3367 B, 735 is an American payload satellite in SSO that was launched on Sun, 19 Jan 1964 UTC via a THOR SLV-2 AGENA D launch vehicle from the Air Force Western Test Range (AFWTR). Payload-class satellites include a variety of spacecraft equipped with specific instruments for various scientific and technological missions. These include communications satellites like Starlink; space stations such as the ISS; scientific satellites like the Hubble; Earth observation satellites from companies like Planet Labs, Umbra, and HawkEye 360; GPS; miniature CubeSats for education and research; and military/defense satellites.

Loading next visibility...
Identifier
735, 1964-002C
Orbit
SSO
Country
Flag of USUS
Related business
Manufacturer
RCA/East Windsor
Mission
Spacecraft
Bus & Motor
P35, Unknown motor
Mass
50 kg wet, 50 kg dry
Launch date (UTC)
1964-01-19 (62 years ago)
Launch vehicle
THOR SLV-2 AGENA D
Launch site
Air Force Western Test Range (AFWTR)
Object type
Payload
Rocket body
Debris
Shape & HBR
Unknown
Radar Cross Section
Medium (>0.1 m² and <1 m²)

Expand to show TLE details & history
Last TLE update: 14 hours ago

TLE from 14 hours ago
0 OPS 3367 B
1 00735U 64002C   26111.67121625  .00000058  00000-0  41568-4 0  9999
2 00735  98.9824  34.7439 0017429 109.2100 251.0968 14.28567447238645
Epoch: 2026-04-21T16:06Z
TLE epoch observation values (Epoch: 2026-04-21T16:06:33.084Z)
Latitude
-0.00006°
Longitude
-56.63759°
Altitude
803.512 km
Speed
7.45 km/s
True Right ascension
02h 18m 58s
True Declination
0° 00' 00"
Sunlit
Object was in daylight at epoch
Visualization orbit readout
Latitude
Unknown
Longitude
Unknown
Altitude
Unknown
Speed
Unknown
Apparent Right ascension
Unknown
Apparent Declination
Unknown
Sunlit
N/A
Visualization observer readout
Local Sidereal Time
13:13:21
Azimuth
Unknown
Elevation
Unknown
Doppler factor
Unknown
Orbital elements
Apogee altitude
806.183 km
Perigee altitude
781.184 km
Semi-major axis
7,171.821 km
Eccentricity
0.00174
Inclination
98.9824°
RAAN
34.7439°
Arg. of periapsis
109.21°
True anomaly
250.90798°
Mean anomaly
251.0968°
Eccentric anomaly
251.00238°
Mean motion
3.57354 °/min
Orbital period
100.74 mins
BSTAR
0.000041568
Loading maneuver chart data...
Computing Atmospheric mass density...
Loading historical data...
Loading historical data...
Loading historical data...
Loading historical data...
Loading historical data...
Loading historical data...
Loading historical data...
Other satellites on launch #2 in the year 1964 (1964-01-19 UTC)

Documentation

Showing up to 5 results
|